Location: Newark
(44.2764°N, 5.2753°E)
Time: 00:48:02
(UTC+00:00)

X-37B - Pass Details

Date: 12 March 2021
Orbit: 380 x 394 km, 45.0° (Epoch: 07 April)

Event Time Altitude Azimuth Distance (km) Brightness Sun altitude
Rises 18:16:16 0° 213° (SSW) 2,257 4.9 -7.1°
Reaches altitude 10° 18:18:43 10° 194° (SSW) 1,410 3.6 -7.5°
Maximum altitude 18:21:01 19° 147° (SSE) 1,015 2.4 -7.9°
Enters shadow 18:23:06 11° 104° (ESE) 1,350 2.7 -8.3°
